UAL682 KSAN-KDEN

Flight info

Callsign UAL682
Flight time 1h 43m
Altitude 37000
Route ZZOOO4 MTBAL EED J236 TBC CRUDD TBARR4
Aircraft A320/M-SDE3FGHIRWY/LB1

Departure

Time 2026-04-26 16:51
Airport San Diego International Airport (KSAN)

Arrival

Time 2026-04-26 18:35
Airport Denver International Airport (KDEN)
Time Latitude Longitude Altitude Speed Heading
2026-04-26 16:03 32.73456 -117.20448 25 ft 0 kts 136°
2026-04-26 16:37 32.73460 -117.20453 21 ft 3 kts 136°
2026-04-26 16:38 32.73478 -117.20473 20 ft 3 kts 136°
2026-04-26 16:38 32.73491 -117.20487 24 ft 2 kts 132°
2026-04-26 16:38 32.73497 -117.20505 22 ft 2 kts 65°
2026-04-26 16:38 32.73493 -117.20515 20 ft 0 kts 68°
2026-04-26 16:44 32.73506 -117.20503 22 ft 8 kts 34°
2026-04-26 16:44 32.73570 -117.20429 19 ft 15 kts 51°
2026-04-26 16:44 32.73582 -117.20321 22 ft 13 kts 109°
2026-04-26 16:44 32.73556 -117.20217 26 ft 13 kts 105°
2026-04-26 16:45 32.73521 -117.20073 26 ft 24 kts 106°
2026-04-26 16:45 32.73472 -117.19874 27 ft 25 kts 106°
2026-04-26 16:45 32.73422 -117.19665 27 ft 28 kts 105°
2026-04-26 16:45 32.73370 -117.19444 27 ft 21 kts 110°
2026-04-26 16:46 32.73329 -117.19283 26 ft 22 kts 107°
2026-04-26 16:46 32.73285 -117.19103 29 ft 23 kts 105°
2026-04-26 16:46 32.73242 -117.18917 26 ft 24 kts 105°
2026-04-26 16:46 32.73194 -117.18724 23 ft 25 kts 106°
2026-04-26 16:47 32.73143 -117.18516 27 ft 28 kts 106°
2026-04-26 16:47 32.73088 -117.18286 23 ft 30 kts 106°
2026-04-26 16:47 32.73027 -117.18035 20 ft 33 kts 105°
2026-04-26 16:47 32.72971 -117.17821 18 ft 19 kts 106°
2026-04-26 16:48 32.72949 -117.17708 19 ft 6 kts 90°
2026-04-26 16:48 32.72949 -117.17701 19 ft 0 kts 84°
2026-04-26 16:50 32.72950 -117.17696 19 ft 2 kts 80°
2026-04-26 16:50 32.72972 -117.17626 21 ft 15 kts 58°
2026-04-26 16:50 32.73039 -117.17657 21 ft 15 kts 280°
2026-04-26 16:50 32.73064 -117.17768 21 ft 19 kts 285°
2026-04-26 16:51 32.73152 -117.18131 23 ft 78 kts 287°
2026-04-26 16:51 32.73356 -117.18967 27 ft 130 kts 286°
2026-04-26 16:51 32.73653 -117.20120 225 ft 155 kts 287°
2026-04-26 16:51 32.73972 -117.21388 629 ft 171 kts 285°
2026-04-26 16:52 32.74306 -117.22796 1244 ft 181 kts 284°
2026-04-26 16:52 32.74536 -117.23786 1589 ft 194 kts 287°
2026-04-26 16:52 32.75078 -117.25986 2468 ft 217 kts 285°
2026-04-26 16:52 32.75498 -117.27745 3214 ft 224 kts 285°
2026-04-26 16:53 32.75926 -117.29540 4005 ft 227 kts 285°
2026-04-26 16:53 32.76358 -117.31355 4891 ft 229 kts 284°
2026-04-26 16:53 32.76478 -117.33208 5707 ft 232 kts 256°
2026-04-26 16:53 32.75608 -117.34821 6486 ft 242 kts 219°
2026-04-26 16:54 32.74005 -117.35482 7254 ft 255 kts 183°
2026-04-26 16:54 32.72283 -117.34868 8024 ft 269 kts 149°
2026-04-26 16:54 32.70855 -117.33397 8809 ft 276 kts 136°
2026-04-26 16:54 32.69553 -117.31697 9597 ft 281 kts 134°
2026-04-26 16:55 32.68237 -117.29960 10327 ft 285 kts 135°
2026-04-26 16:55 32.66900 -117.28197 10992 ft 290 kts 135°
2026-04-26 16:55 32.65463 -117.26505 11641 ft 293 kts 142°
2026-04-26 16:55 32.64071 -117.24696 12297 ft 303 kts 129°
2026-04-26 16:56 32.62643 -117.19722 12883 ft 347 kts 97°
2026-04-26 16:56 32.62378 -117.16780 13053 ft 370 kts 96°
2026-04-26 16:56 32.62124 -117.13680 13430 ft 383 kts 96°
2026-04-26 16:57 32.61869 -117.10505 13980 ft 390 kts 96°
2026-04-26 16:57 32.61599 -117.07275 14534 ft 396 kts 97°
2026-04-26 16:57 32.61020 -117.00756 15643 ft 405 kts 98°
2026-04-26 16:58 32.60712 -116.97420 16200 ft 409 kts 98°
2026-04-26 16:58 32.60503 -116.95147 16580 ft 412 kts 98°
2026-04-26 16:58 32.61055 -116.87194 17858 ft 425 kts 76°
2026-04-26 16:59 32.61926 -116.83827 18372 ft 429 kts 65°
2026-04-26 16:59 32.65183 -116.77936 19293 ft 429 kts 40°
2026-04-26 17:00 32.69996 -116.73932 20320 ft 420 kts 16°
2026-04-26 17:00 32.75421 -116.71268 21389 ft 426 kts 15°
2026-04-26 17:00 32.78166 -116.69933 21979 ft 427 kts 14°
2026-04-26 17:01 32.80926 -116.68586 22508 ft 431 kts 14°
2026-04-26 17:01 32.83710 -116.67223 23029 ft 435 kts 14°
2026-04-26 17:01 32.86521 -116.65844 23527 ft 439 kts 14°
2026-04-26 17:01 32.89355 -116.64455 23951 ft 443 kts 14°
2026-04-26 17:02 32.92215 -116.63052 24346 ft 447 kts 14°
2026-04-26 17:02 32.95099 -116.61637 24732 ft 451 kts 14°
2026-04-26 17:02 32.98013 -116.60205 25123 ft 455 kts 14°
2026-04-26 17:02 33.00953 -116.58756 25497 ft 459 kts 14°
2026-04-26 17:03 33.03907 -116.57274 25859 ft 463 kts 14°
2026-04-26 17:03 33.06872 -116.55741 26158 ft 467 kts 15°
2026-04-26 17:03 33.09861 -116.54164 26505 ft 471 kts 15°
2026-04-26 17:03 33.12866 -116.52565 26833 ft 475 kts 15°
2026-04-26 17:04 33.15855 -116.50976 27169 ft 478 kts 15°
2026-04-26 17:04 33.18912 -116.49362 27479 ft 482 kts 15°
2026-04-26 17:04 33.21998 -116.47739 27795 ft 485 kts 14°
2026-04-26 17:04 33.25099 -116.46114 28088 ft 488 kts 14°
2026-04-26 17:05 33.28222 -116.44482 28473 ft 491 kts 13°
2026-04-26 17:05 33.31350 -116.42842 28930 ft 492 kts 15°
2026-04-26 17:05 33.34486 -116.41172 29255 ft 497 kts 17°
2026-04-26 17:05 33.37525 -116.39090 29570 ft 510 kts 27°
2026-04-26 17:06 33.40361 -116.36452 29834 ft 523 kts 36°
2026-04-26 17:06 33.42900 -116.33281 30124 ft 533 kts 46°
2026-04-26 17:06 33.45119 -116.29692 30405 ft 538 kts 51°
2026-04-26 17:06 33.47299 -116.26035 30651 ft 541 kts 51°
2026-04-26 17:07 33.49498 -116.22361 30850 ft 545 kts 51°
2026-04-26 17:07 33.51718 -116.18659 31063 ft 548 kts 51°
2026-04-26 17:07 33.53915 -116.14993 31406 ft 548 kts 51°
2026-04-26 17:07 33.56132 -116.11282 31774 ft 548 kts 51°
2026-04-26 17:08 33.58352 -116.07559 32140 ft 548 kts 51°
2026-04-26 17:08 33.60628 -116.03892 32520 ft 546 kts 45°
2026-04-26 17:08 33.63149 -116.00507 32967 ft 543 kts 43°
2026-04-26 17:08 33.65687 -115.97165 33438 ft 542 kts 43°
2026-04-26 17:09 33.68225 -115.93814 33828 ft 542 kts 43°
2026-04-26 17:09 33.69908 -115.91589 33998 ft 544 kts 43°
2026-04-26 17:09 33.73316 -115.87074 34376 ft 545 kts 43°
2026-04-26 17:09 33.75858 -115.83701 34697 ft 544 kts 43°
2026-04-26 17:10 33.78400 -115.80326 35030 ft 543 kts 43°
2026-04-26 17:10 33.80930 -115.76965 35358 ft 542 kts 43°
2026-04-26 17:10 33.83453 -115.73610 35668 ft 541 kts 43°
2026-04-26 17:10 33.85973 -115.70255 35986 ft 539 kts 43°
2026-04-26 17:11 33.88454 -115.66950 36291 ft 538 kts 43°
2026-04-26 17:11 33.90962 -115.63605 36590 ft 537 kts 43°
2026-04-26 17:11 33.93465 -115.60264 36830 ft 537 kts 43°
2026-04-26 17:11 33.95964 -115.56926 36898 ft 537 kts 44°
2026-04-26 17:12 34.03407 -115.46958 36898 ft 531 kts 44°
2026-04-26 17:13 34.09787 -115.38398 36887 ft 530 kts 44°
2026-04-26 17:14 34.17187 -115.28436 36882 ft 531 kts 44°
2026-04-26 17:14 34.24580 -115.18456 36875 ft 531 kts 44°
2026-04-26 17:15 34.31974 -115.08444 36911 ft 532 kts 44°
2026-04-26 17:16 34.36888 -115.01775 36898 ft 530 kts 44°
2026-04-26 17:16 34.41788 -114.95105 36884 ft 530 kts 44°
2026-04-26 17:17 34.46660 -114.88468 36880 ft 530 kts 44°
2026-04-26 17:17 34.51556 -114.81794 36879 ft 530 kts 44°
2026-04-26 17:18 34.56458 -114.75109 36892 ft 530 kts 44°
2026-04-26 17:18 34.61356 -114.68412 36903 ft 531 kts 44°
2026-04-26 17:19 34.68651 -114.58369 36874 ft 524 kts 45°
2026-04-26 17:19 34.73473 -114.51723 36879 ft 524 kts 45°
2026-04-26 17:20 34.77224 -114.45877 36869 ft 529 kts 57°
2026-04-26 17:20 34.81325 -114.36721 36812 ft 531 kts 60°
2026-04-26 17:21 34.84827 -114.28808 36811 ft 531 kts 60°
2026-04-26 17:21 34.88344 -114.20874 36801 ft 532 kts 60°
2026-04-26 17:22 34.91837 -114.12925 36785 ft 532 kts 61°
2026-04-26 17:22 34.95312 -114.04957 36773 ft 532 kts 61°
2026-04-26 17:23 34.98788 -113.96995 36786 ft 532 kts 60°
2026-04-26 17:23 35.02271 -113.89039 36792 ft 531 kts 61°
2026-04-26 17:24 35.05736 -113.81083 36806 ft 530 kts 60°
2026-04-26 17:24 35.09186 -113.73135 36802 ft 529 kts 61°
2026-04-26 17:25 35.12596 -113.65258 36792 ft 528 kts 61°
2026-04-26 17:25 35.16025 -113.57331 36819 ft 527 kts 61°
2026-04-26 17:26 35.19465 -113.49361 36785 ft 526 kts 61°
2026-04-26 17:26 35.22845 -113.41494 36778 ft 526 kts 61°
2026-04-26 17:27 35.26249 -113.33554 36773 ft 527 kts 61°
2026-04-26 17:27 35.29657 -113.25604 36770 ft 527 kts 61°
2026-04-26 17:28 35.33067 -113.17647 36775 ft 528 kts 61°
2026-04-26 17:28 35.36473 -113.09669 36787 ft 528 kts 61°
2026-04-26 17:29 35.39292 -113.03047 36791 ft 528 kts 61°
2026-04-26 17:29 35.43259 -112.93693 36788 ft 529 kts 62°
2026-04-26 17:30 35.46646 -112.85684 36790 ft 529 kts 62°
2026-04-26 17:30 35.50019 -112.77675 36837 ft 528 kts 62°
2026-04-26 17:31 35.53381 -112.69684 36775 ft 525 kts 62°
2026-04-26 17:31 35.56710 -112.61756 36775 ft 526 kts 62°
2026-04-26 17:32 35.60056 -112.53767 36778 ft 526 kts 62°
2026-04-26 17:32 35.63406 -112.45762 36781 ft 527 kts 62°
2026-04-26 17:33 35.66756 -112.37750 36761 ft 527 kts 62°
2026-04-26 17:34 35.71764 -112.25707 36772 ft 527 kts 62°
2026-04-26 17:34 35.75103 -112.17661 36779 ft 528 kts 62°
2026-04-26 17:35 35.78440 -112.09590 36762 ft 527 kts 63°
2026-04-26 17:35 35.81741 -112.01588 36773 ft 527 kts 63°
2026-04-26 17:36 35.85051 -111.93541 36779 ft 526 kts 63°
2026-04-26 17:36 35.88353 -111.85498 36837 ft 526 kts 63°
2026-04-26 17:37 35.91649 -111.77455 36780 ft 526 kts 63°
2026-04-26 17:37 35.94946 -111.69368 36734 ft 527 kts 63°
2026-04-26 17:38 35.99876 -111.57236 36743 ft 526 kts 63°
2026-04-26 17:38 36.02603 -111.50520 36727 ft 526 kts 63°
2026-04-26 17:39 36.05888 -111.42432 36722 ft 527 kts 63°
2026-04-26 17:39 36.09169 -111.34337 36741 ft 527 kts 63°
2026-04-26 17:40 36.11888 -111.27591 36736 ft 527 kts 63°
2026-04-26 17:40 36.15915 -111.18232 36750 ft 527 kts 59°
2026-04-26 17:41 36.19602 -111.10385 36733 ft 527 kts 58°
2026-04-26 17:41 36.23244 -111.02573 36740 ft 527 kts 59°
2026-04-26 17:42 36.26829 -110.94628 36745 ft 528 kts 60°
2026-04-26 17:42 36.30376 -110.86675 36743 ft 528 kts 60°
2026-04-26 17:43 36.33941 -110.78710 36756 ft 528 kts 60°
2026-04-26 17:43 36.37503 -110.70769 36746 ft 526 kts 60°
2026-04-26 17:44 36.41052 -110.62845 36746 ft 524 kts 60°
2026-04-26 17:44 36.44582 -110.54937 36740 ft 523 kts 60°
2026-04-26 17:45 36.48078 -110.47080 36700 ft 523 kts 60°
2026-04-26 17:45 36.51607 -110.39130 36728 ft 522 kts 60°
2026-04-26 17:46 36.55085 -110.31274 36726 ft 521 kts 60°
2026-04-26 17:46 36.58574 -110.23374 36728 ft 521 kts 60°
2026-04-26 17:47 36.61477 -110.16794 36719 ft 521 kts 60°
2026-04-26 17:47 36.65551 -110.07532 36706 ft 522 kts 61°
2026-04-26 17:48 36.69036 -109.99572 36690 ft 524 kts 61°
2026-04-26 17:48 36.72530 -109.91584 36693 ft 526 kts 61°
2026-04-26 17:49 36.76025 -109.83578 36698 ft 526 kts 61°
2026-04-26 17:49 36.79523 -109.75541 36722 ft 527 kts 61°
2026-04-26 17:50 36.83024 -109.67485 36723 ft 528 kts 61°
2026-04-26 17:50 36.86513 -109.59429 36728 ft 528 kts 61°
2026-04-26 17:51 36.89979 -109.51396 36747 ft 529 kts 61°
2026-04-26 17:51 36.93473 -109.43308 36718 ft 528 kts 61°
2026-04-26 17:52 36.96953 -109.35219 36746 ft 528 kts 61°
2026-04-26 17:52 37.00425 -109.27126 36752 ft 527 kts 61°
2026-04-26 17:53 37.03887 -109.19042 36758 ft 527 kts 61°
2026-04-26 17:54 37.09065 -109.06908 36776 ft 527 kts 62°
2026-04-26 17:54 37.12497 -108.98833 36775 ft 527 kts 62°
2026-04-26 17:55 37.15929 -108.90745 36781 ft 526 kts 62°
2026-04-26 17:55 37.19359 -108.82624 36790 ft 525 kts 62°
2026-04-26 17:56 37.22766 -108.74531 36776 ft 525 kts 62°
2026-04-26 17:57 37.29594 -108.58316 36912 ft 525 kts 62°
2026-04-26 17:57 37.32989 -108.50211 36906 ft 525 kts 62°
2026-04-26 17:58 37.39750 -108.33992 36852 ft 526 kts 62°
2026-04-26 17:59 37.44839 -108.21754 36831 ft 527 kts 62°
2026-04-26 17:59 37.48225 -108.13569 36854 ft 526 kts 62°
2026-04-26 18:00 37.51595 -108.05415 36834 ft 524 kts 62°
2026-04-26 18:00 37.54945 -107.97265 36831 ft 524 kts 62°
2026-04-26 18:01 37.58300 -107.89109 36828 ft 524 kts 62°
2026-04-26 18:01 37.61649 -107.80952 36837 ft 524 kts 63°
2026-04-26 18:02 37.64433 -107.74150 36829 ft 524 kts 63°
2026-04-26 18:02 37.68323 -107.64625 36827 ft 525 kts 63°
2026-04-26 18:03 37.71654 -107.56434 36817 ft 525 kts 63°
2026-04-26 18:03 37.75189 -107.48364 36834 ft 524 kts 53°
2026-04-26 18:04 37.79937 -107.41430 36808 ft 521 kts 44°
2026-04-26 18:05 37.87368 -107.31384 36814 ft 520 kts 44°
2026-04-26 18:05 37.92280 -107.24688 36810 ft 519 kts 44°
2026-04-26 18:06 37.97148 -107.18042 36768 ft 518 kts 44°
2026-04-26 18:06 38.02087 -107.11294 36772 ft 518 kts 45°
2026-04-26 18:07 38.06949 -107.04629 36736 ft 518 kts 44°
2026-04-26 18:07 38.11836 -106.97914 36774 ft 517 kts 45°
2026-04-26 18:08 38.16706 -106.91216 36772 ft 515 kts 45°
2026-04-26 18:08 38.21567 -106.84526 36762 ft 514 kts 45°
2026-04-26 18:09 38.26408 -106.77835 36755 ft 513 kts 45°
2026-04-26 18:09 38.31224 -106.71151 36746 ft 513 kts 45°
2026-04-26 18:10 38.36062 -106.64451 36731 ft 513 kts 45°
2026-04-26 18:10 38.40882 -106.57764 36765 ft 513 kts 45°
2026-04-26 18:10 38.43303 -106.54396 36561 ft 516 kts 45°
2026-04-26 18:11 38.45729 -106.51011 36302 ft 515 kts 45°
2026-04-26 18:11 38.48153 -106.47622 36045 ft 513 kts 45°
2026-04-26 18:11 38.50540 -106.44280 35822 ft 511 kts 45°
2026-04-26 18:11 38.52934 -106.40925 35469 ft 508 kts 45°
2026-04-26 18:12 38.55314 -106.37591 34930 ft 509 kts 46°
2026-04-26 18:12 38.57676 -106.34283 34376 ft 508 kts 45°
2026-04-26 18:12 38.60083 -106.30913 33849 ft 508 kts 45°
2026-04-26 18:12 38.62470 -106.27564 33226 ft 508 kts 45°
2026-04-26 18:13 38.64840 -106.24235 32688 ft 504 kts 46°
2026-04-26 18:13 38.67136 -106.20943 32262 ft 499 kts 47°
2026-04-26 18:13 38.69375 -106.17591 31994 ft 490 kts 49°
2026-04-26 18:13 38.70845 -106.15329 31683 ft 486 kts 50°
2026-04-26 18:14 38.73630 -106.10969 30758 ft 472 kts 50°
2026-04-26 18:14 38.75686 -106.07738 30125 ft 460 kts 50°
2026-04-26 18:14 38.77682 -106.04628 29859 ft 441 kts 50°
2026-04-26 18:14 38.79609 -106.01649 29609 ft 425 kts 50°
2026-04-26 18:15 38.81490 -105.98759 29210 ft 421 kts 49°
2026-04-26 18:15 38.83369 -105.95883 28834 ft 418 kts 49°
2026-04-26 18:15 38.85226 -105.93039 28309 ft 416 kts 50°
2026-04-26 18:15 38.87077 -105.90200 27942 ft 413 kts 50°
2026-04-26 18:16 38.88915 -105.87371 27595 ft 410 kts 50°
2026-04-26 18:16 38.92534 -105.81766 26839 ft 405 kts 50°
2026-04-26 18:16 38.94305 -105.79009 26466 ft 403 kts 50°
2026-04-26 18:17 38.96105 -105.76203 26084 ft 401 kts 51°
2026-04-26 18:17 38.97868 -105.73453 25690 ft 399 kts 51°
2026-04-26 18:17 38.99639 -105.70691 25288 ft 398 kts 51°
2026-04-26 18:17 39.01399 -105.67953 24893 ft 396 kts 51°
2026-04-26 18:18 39.03149 -105.65232 24496 ft 395 kts 51°
2026-04-26 18:18 39.04899 -105.62505 24070 ft 394 kts 51°
2026-04-26 18:18 39.06615 -105.59825 23676 ft 393 kts 51°
2026-04-26 18:18 39.08346 -105.57118 23253 ft 393 kts 51°
2026-04-26 18:19 39.10091 -105.54388 22784 ft 392 kts 51°
2026-04-26 18:19 39.11817 -105.51690 22376 ft 389 kts 51°
2026-04-26 18:19 39.13532 -105.49007 21973 ft 387 kts 51°
2026-04-26 18:19 39.15233 -105.46342 21556 ft 385 kts 51°
2026-04-26 18:20 39.16931 -105.43666 21096 ft 385 kts 51°
2026-04-26 18:20 39.18622 -105.40987 20636 ft 384 kts 51°
2026-04-26 18:20 39.20304 -105.38311 20188 ft 384 kts 51°
2026-04-26 18:20 39.20849 -105.37443 20038 ft 384 kts 51°
2026-04-26 18:21 39.23663 -105.32951 19291 ft 383 kts 50°
2026-04-26 18:21 39.25314 -105.30311 18844 ft 384 kts 50°
2026-04-26 18:21 39.26987 -105.27561 18376 ft 384 kts 56°
2026-04-26 18:21 39.28253 -105.24531 17931 ft 383 kts 70°
2026-04-26 18:22 39.28948 -105.21277 17722 ft 370 kts 84°
2026-04-26 18:22 39.29332 -105.18054 17349 ft 367 kts 84°
2026-04-26 18:22 39.29716 -105.14818 16991 ft 364 kts 84°
2026-04-26 18:22 39.30097 -105.11598 16614 ft 361 kts 84°
2026-04-26 18:23 39.30474 -105.08404 16227 ft 360 kts 84°
2026-04-26 18:23 39.30850 -105.05210 15859 ft 357 kts 84°
2026-04-26 18:23 39.31222 -105.02048 15464 ft 356 kts 85°
2026-04-26 18:23 39.31627 -104.98900 15100 ft 354 kts 82°
2026-04-26 18:24 39.32142 -104.95786 14596 ft 358 kts 80°
2026-04-26 18:24 39.32732 -104.92656 14162 ft 354 kts 78°
2026-04-26 18:24 39.33333 -104.89652 14022 ft 332 kts 78°
2026-04-26 18:24 39.33909 -104.86883 13864 ft 315 kts 76°
2026-04-26 18:25 39.34557 -104.84190 13524 ft 306 kts 74°
2026-04-26 18:25 39.35317 -104.81668 13204 ft 297 kts 60°
2026-04-26 18:25 39.36582 -104.79641 12915 ft 285 kts 39°
2026-04-26 18:25 39.38192 -104.78289 12713 ft 277 kts 20°
2026-04-26 18:26 39.40009 -104.77574 12470 ft 273 kts 10°
2026-04-26 18:26 39.41847 -104.76990 12239 ft 272 kts 11°
2026-04-26 18:26 39.43678 -104.76398 11990 ft 270 kts 11°
2026-04-26 18:26 39.45486 -104.75809 11762 ft 267 kts 12°
2026-04-26 18:27 39.47282 -104.75225 11529 ft 264 kts 12°
2026-04-26 18:27 39.49051 -104.74655 11297 ft 261 kts 12°
2026-04-26 18:27 39.50246 -104.74269 11147 ft 260 kts 12°
2026-04-26 18:27 39.51970 -104.73712 10918 ft 257 kts 12°
2026-04-26 18:28 39.53695 -104.73154 10689 ft 254 kts 12°
2026-04-26 18:28 39.55402 -104.72600 10469 ft 252 kts 12°
2026-04-26 18:28 39.57115 -104.72045 10244 ft 249 kts 13°
2026-04-26 18:28 39.58760 -104.71510 10028 ft 245 kts 13°
2026-04-26 18:29 39.60393 -104.70980 9845 ft 238 kts 13°
2026-04-26 18:29 39.61981 -104.70462 9599 ft 234 kts 13°
2026-04-26 18:29 39.63533 -104.69956 9380 ft 227 kts 13°
2026-04-26 18:29 39.65038 -104.69466 9179 ft 219 kts 13°
2026-04-26 18:30 39.66511 -104.69076 8991 ft 212 kts
2026-04-26 18:30 39.67957 -104.68950 8754 ft 207 kts
2026-04-26 18:30 39.69390 -104.68917 8500 ft 204 kts 359°
2026-04-26 18:30 39.70810 -104.68900 8249 ft 204 kts 359°
2026-04-26 18:31 39.72218 -104.68884 8008 ft 201 kts 359°
2026-04-26 18:31 39.73563 -104.68867 7786 ft 183 kts 359°
2026-04-26 18:31 39.74793 -104.68853 7558 ft 171 kts 360°
2026-04-26 18:31 39.75962 -104.68840 7361 ft 165 kts 360°
2026-04-26 18:32 39.77099 -104.68827 7173 ft 162 kts
2026-04-26 18:32 39.78208 -104.68816 7006 ft 161 kts
2026-04-26 18:32 39.79323 -104.68792 6793 ft 160 kts
2026-04-26 18:32 39.80428 -104.68768 6608 ft 158 kts
2026-04-26 18:33 39.81551 -104.68769 6421 ft 159 kts 360°
2026-04-26 18:33 39.82631 -104.68785 6214 ft 157 kts
2026-04-26 18:33 39.83712 -104.68746 5964 ft 152 kts
2026-04-26 18:33 39.84740 -104.68729 5802 ft 145 kts 359°
2026-04-26 18:34 39.85738 -104.68730 5604 ft 142 kts 359°
2026-04-26 18:34 39.86713 -104.68716 5401 ft 136 kts
2026-04-26 18:34 39.87538 -104.68710 5383 ft 101 kts 360°
2026-04-26 18:34 39.88147 -104.68698 5374 ft 71 kts
2026-04-26 18:35 39.88560 -104.68691 5364 ft 52 kts
2026-04-26 18:35 39.88796 -104.68647 5362 ft 27 kts 33°
2026-04-26 18:35 39.88896 -104.68553 5364 ft 13 kts 62°
2026-04-26 18:35 39.88868 -104.68484 5364 ft 6 kts 155°
2026-04-26 18:36 39.88840 -104.68479 5364 ft 0 kts 176°
2026-04-26 18:36 39.88839 -104.68479 5364 ft 0 kts 176°
2026-04-26 18:36 39.88814 -104.68478 5362 ft 8 kts 178°
2026-04-26 18:37 39.88731 -104.68481 5364 ft 16 kts 180°
2026-04-26 18:37 39.88606 -104.68481 5364 ft 19 kts 180°
2026-04-26 18:37 39.88465 -104.68482 5366 ft 21 kts 180°
2026-04-26 18:37 39.88325 -104.68483 5367 ft 19 kts 181°
2026-04-26 18:38 39.88196 -104.68485 5372 ft 18 kts 180°
2026-04-26 18:38 39.88072 -104.68487 5376 ft 17 kts 180°
2026-04-26 18:38 39.87955 -104.68488 5379 ft 16 kts 180°
2026-04-26 18:38 39.87844 -104.68489 5382 ft 16 kts 180°
2026-04-26 18:39 39.87731 -104.68492 5381 ft 17 kts 181°
2026-04-26 18:39 39.87606 -104.68495 5380 ft 18 kts 180°
2026-04-26 18:39 39.87478 -104.68495 5382 ft 19 kts 180°
2026-04-26 18:39 39.87341 -104.68496 5378 ft 21 kts 180°
2026-04-26 18:40 39.87191 -104.68498 5382 ft 21 kts 181°
2026-04-26 18:40 39.87043 -104.68500 5384 ft 21 kts 180°
2026-04-26 18:40 39.86894 -104.68500 5386 ft 21 kts 180°
2026-04-26 18:40 39.86756 -104.68501 5393 ft 18 kts 181°
2026-04-26 18:41 39.86633 -104.68504 5391 ft 18 kts 180°
2026-04-26 18:41 39.86509 -104.68506 5392 ft 18 kts 181°
2026-04-26 18:41 39.86392 -104.68509 5395 ft 16 kts 180°
2026-04-26 18:41 39.86273 -104.68508 5395 ft 18 kts 180°
2026-04-26 18:42 39.86128 -104.68508 5392 ft 23 kts 180°
2026-04-26 18:42 39.85955 -104.68510 5386 ft 27 kts 180°
2026-04-26 18:42 39.85757 -104.68514 5376 ft 21 kts 181°
2026-04-26 18:42 39.85708 -104.68498 5376 ft 9 kts 148°
2026-04-26 18:43 39.85687 -104.68431 5375 ft 8 kts 95°
2026-04-26 18:43 39.85687 -104.68349 5381 ft 14 kts 89°
2026-04-26 18:43 39.85684 -104.68188 5382 ft 22 kts 102°
2026-04-26 18:43 39.85668 -104.67978 5381 ft 25 kts 90°
2026-04-26 18:44 39.85669 -104.67748 5380 ft 24 kts 88°
2026-04-26 18:44 39.85680 -104.67686 5376 ft 5 kts 51°
2026-04-26 18:44 39.85717 -104.67680 5377 ft 7 kts
2026-04-26 18:44 39.85764 -104.67679 5378 ft 3 kts 360°
2026-04-26 18:45 39.85784 -104.67679 5378 ft 3 kts
2026-04-26 18:45 39.85799 -104.67678 5379 ft 0 kts
2026-04-26 18:45 39.85801 -104.67678 5379 ft 0 kts